TIANTUO 2

Last updated on Fri Dec 29 2023 00:03:29 GMT+0000 (Coordinated Universal Time)

1 40144U 14053B 23362.45816392 .00019130 00000+0 32188-3 0 9998 2 40144 97.1435 78.8583 0007332 329.1369 30.9452 15.51739983521306
UTC large
Height (km)
Speed (km/s)
/
Latitude / Longitude
Inclination (degrees)
Orbital Period (minutes)
Azimuth
Elevation
Range (km)
Doppler Factor

Next 0 passes for location: London (51.5072 / 0.1276)

Sorry there are no passes over London.